カタログに戻る

COSMOS 2251 DEB

運用中LEO
NORAD 40230·DEBRIS·🇷🇺 Russia

打ち上げ Jun 16, 1993 から Plesetsk Cosmodrome

Loading…

次のパス (今後24時間)

TLE

経年Source: Space-Track

元期: Sep 11, 2026, 11:56 UTC

1 40230U 93036BVK 26254.49739152  .00001380  00000-0  35833-3 0  9996
2 40230  74.0422  74.8968 0016777  67.1991 323.0118 14.50593544629255

AllMySatでCOSMOS 2251 DEBをリアルタイム追跡

Download on the App Store